Time,TemperatureF,DewpointF,PressureIn,WindDirection,WindDirectionDegrees,WindSpeedMPH,WindSpeedGustMPH,Humidity,HourlyPrecipIn,Conditions,Clouds,dailyrainin,SoftwareType,DateUTC
2013-07-27 00:00:00,54.8,43.7,30.20,West,277,0.0,0.0,66,0.00,,,0.00,Wunderground v.1.15,2013-07-27 07:00:00,
2013-07-27 00:05:00,54.7,43.6,30.20,West,277,0.0,0.0,66,0.00,,,0.00,Wunderground v.1.15,2013-07-27 07:05:00,
2013-07-27 00:15:00,54.4,43.7,30.20,West,277,0.0,0.0,67,0.00,,,0.00,Wunderground v.1.15,2013-07-27 07:15:00,
2013-07-27 00:25:00,54.2,43.5,30.20,West,277,0.0,0.0,67,0.00,,,0.00,Wunderground v.1.15,2013-07-27 07:25:00,
2013-07-27 00:35:00,54.1,43.4,30.20,West,277,0.0,0.0,67,0.00,,,0.00,Wunderground v.1.15,2013-07-27 07:35:00,
2013-07-27 00:45:00,54.1,43.4,30.20,West,277,0.0,0.0,67,0.00,,,0.00,Wunderground v.1.15,2013-07-27 07:45:00,
2013-07-27 00:50:00,54.1,43.8,30.20,West,277,0.0,0.0,68,0.00,,,0.00,Wunderground v.1.15,2013-07-27 07:50:00,
2013-07-27 01:00:00,53.8,43.5,30.20,West,277,0.0,0.0,68,0.00,,,0.00,Wunderground v.1.15,2013-07-27 08:00:00,
2013-07-27 01:05:00,53.6,43.7,30.20,West,277,0.0,0.0,69,0.00,,,0.00,Wunderground v.1.15,2013-07-27 08:05:00,
2013-07-27 01:15:00,53.5,43.6,30.21,West,277,0.0,0.0,69,0.00,,,0.00,Wunderground v.1.15,2013-07-27 08:15:00,
2013-07-27 01:25:00,53.3,43.4,30.21,West,277,0.0,0.0,69,0.00,,,0.00,Wunderground v.1.15,2013-07-27 08:25:00,
2013-07-27 01:35:00,53.2,43.7,30.21,West,277,0.0,0.0,70,0.00,,,0.00,Wunderground v.1.15,2013-07-27 08:35:00,
2013-07-27 01:45:00,53.2,43.3,30.20,West,277,0.0,0.0,69,0.00,,,0.00,Wunderground v.1.15,2013-07-27 08:45:00,
2013-07-27 01:55:00,52.2,42.7,30.20,West,277,0.0,0.0,70,0.00,,,0.00,Wunderground v.1.15,2013-07-27 08:55:00,
2013-07-27 02:00:00,51.9,42.8,30.21,NNE,30,0.0,0.0,71,0.00,,,0.00,Wunderground v.1.15,2013-07-27 09:00:00,
2013-07-27 02:05:00,51.7,43.0,30.21,NNE,30,0.0,0.0,72,0.00,,,0.00,Wunderground v.1.15,2013-07-27 09:05:00,
2013-07-27 02:15:00,51.7,43.0,30.21,NNE,30,0.0,0.0,72,0.00,,,0.00,Wunderground v.1.15,2013-07-27 09:15:00,
2013-07-27 02:25:00,51.7,43.0,30.21,NNE,30,0.0,0.0,72,0.00,,,0.00,Wunderground v.1.15,2013-07-27 09:25:00,
2013-07-27 02:35:00,51.4,42.7,30.21,NNE,30,0.0,0.0,72,0.00,,,0.00,Wunderground v.1.15,2013-07-27 09:35:00,
2013-07-27 02:45:00,51.0,42.6,30.21,NNE,30,0.0,0.0,73,0.00,,,0.00,Wunderground v.1.15,2013-07-27 09:45:00,
2013-07-27 02:55:00,50.7,42.7,30.21,NNE,30,0.0,0.0,74,0.00,,,0.00,Wunderground v.1.15,2013-07-27 09:55:00,
2013-07-27 03:00:00,50.7,42.7,30.21,NNE,30,0.0,0.0,74,0.00,,,0.00,Wunderground v.1.15,2013-07-27 10:00:00,
2013-07-27 03:05:00,50.4,42.4,30.21,NE,47,0.0,0.0,74,0.00,,,0.00,Wunderground v.1.15,2013-07-27 10:05:00,
2013-07-27 03:15:00,49.9,41.9,30.21,ENE,62,1.0,1.0,74,0.00,,,0.00,Wunderground v.1.15,2013-07-27 10:15:00,
2013-07-27 03:25:00,50.1,43.2,30.21,ENE,62,0.0,0.0,77,0.00,,,0.00,Wunderground v.1.15,2013-07-27 10:25:00,
2013-07-27 03:30:00,50.2,44.3,30.21,ENE,62,0.0,0.0,80,0.00,,,0.00,Wunderground v.1.15,2013-07-27 10:30:00,
2013-07-27 03:40:00,50.2,44.3,30.21,ENE,62,0.0,0.0,80,0.00,,,0.00,Wunderground v.1.15,2013-07-27 10:40:00,
2013-07-27 03:50:00,50.1,45.1,30.21,ENE,62,0.0,0.0,83,0.00,,,0.00,Wunderground v.1.15,2013-07-27 10:50:00,
2013-07-27 04:00:00,49.9,44.6,30.21,ENE,62,0.0,0.0,82,0.00,,,0.00,Wunderground v.1.15,2013-07-27 11:00:00,
2013-07-27 04:05:00,50.1,44.8,30.21,ENE,62,0.0,0.0,82,0.00,,,0.00,Wunderground v.1.15,2013-07-27 11:05:00,
2013-07-27 04:15:00,50.1,44.8,30.21,ENE,62,1.0,3.0,82,0.00,,,0.00,Wunderground v.1.15,2013-07-27 11:15:00,
2013-07-27 04:20:00,49.9,44.9,30.21,ENE,62,0.0,0.0,83,0.00,,,0.00,Wunderground v.1.15,2013-07-27 11:20:00,
2013-07-27 04:30:00,49.6,43.7,30.22,ENE,62,0.0,0.0,80,0.00,,,0.00,Wunderground v.1.15,2013-07-27 11:30:00,
2013-07-27 04:40:00,49.4,44.8,30.22,ENE,73,1.0,2.0,84,0.00,,,0.00,Wunderground v.1.15,2013-07-27 11:40:00,
2013-07-27 04:50:00,49.2,45.8,30.22,ENE,65,1.0,1.0,88,0.00,,,0.00,Wunderground v.1.15,2013-07-27 11:50:00,
2013-07-27 05:00:00,48.9,46.1,30.21,ENE,64,0.0,0.0,90,0.00,,,0.00,Wunderground v.1.15,2013-07-27 12:00:00,
2013-07-27 05:05:00,48.8,46.0,30.21,ENE,64,0.0,0.0,90,0.00,,,0.00,Wunderground v.1.15,2013-07-27 12:05:00,
2013-07-27 05:15:00,48.8,46.0,30.22,ENE,59,0.0,0.0,90,0.00,,,0.00,Wunderground v.1.15,2013-07-27 12:15:00,
2013-07-27 05:25:00,48.6,45.8,30.22,ENE,59,0.0,0.0,90,0.00,,,0.00,Wunderground v.1.15,2013-07-27 12:25:00,
2013-07-27 05:35:00,48.6,45.8,30.22,ENE,64,0.0,4.0,90,0.00,,,0.00,Wunderground v.1.15,2013-07-27 12:35:00,
2013-07-27 05:40:00,48.8,46.0,30.22,ENE,64,0.0,0.0,90,0.00,,,0.00,Wunderground v.1.15,2013-07-27 12:40:00,
2013-07-27 05:50:00,48.9,46.1,30.22,ENE,62,1.0,1.0,90,0.00,,,0.00,Wunderground v.1.15,2013-07-27 12:50:00,
2013-07-27 06:00:00,49.1,46.6,30.22,ENE,62,0.0,0.0,91,0.00,,,0.00,Wunderground v.1.15,2013-07-27 13:00:00,
2013-07-27 06:05:00,49.1,46.6,30.22,ENE,62,0.0,0.0,91,0.00,,,0.00,Wunderground v.1.15,2013-07-27 13:05:00,
2013-07-27 06:15:00,49.1,46.3,30.22,ENE,62,0.0,0.0,90,0.00,,,0.00,Wunderground v.1.15,2013-07-27 13:15:00,
2013-07-27 06:25:00,49.6,46.8,30.22,ENE,62,0.0,0.0,90,0.00,,,0.00,Wunderground v.1.15,2013-07-27 13:25:00,
2013-07-27 06:35:00,50.2,45.2,30.23,ENE,62,0.0,0.0,83,0.00,,,0.00,Wunderground v.1.15,2013-07-27 13:35:00,
2013-07-27 06:45:00,51.0,43.4,30.23,ENE,59,0.0,0.0,75,0.00,,,0.00,Wunderground v.1.15,2013-07-27 13:45:00,
2013-07-27 06:55:00,51.7,43.3,30.23,ENE,59,0.0,0.0,73,0.00,,,0.00,Wunderground v.1.15,2013-07-27 13:55:00,
2013-07-27 07:00:00,52.2,43.4,30.23,ENE,59,0.0,0.0,72,0.00,,,0.00,Wunderground v.1.15,2013-07-27 14:00:00,
2013-07-27 07:05:00,52.9,43.7,30.23,ENE,59,0.0,0.0,71,0.00,,,0.00,Wunderground v.1.15,2013-07-27 14:05:00,
2013-07-27 07:15:00,53.5,43.2,30.23,ENE,59,0.0,0.0,68,0.00,,,0.00,Wunderground v.1.15,2013-07-27 14:15:00,
2013-07-27 07:25:00,54.5,43.8,30.23,ENE,59,0.0,0.0,67,0.00,,,0.00,Wunderground v.1.15,2013-07-27 14:25:00,
2013-07-27 07:35:00,55.7,43.3,30.23,ENE,59,0.0,0.0,63,0.00,,,0.00,Wunderground v.1.15,2013-07-27 14:35:00,
2013-07-27 07:45:00,56.7,43.0,30.23,ENE,59,0.0,0.0,60,0.00,,,0.00,Wunderground v.1.15,2013-07-27 14:45:00,
2013-07-27 07:55:00,57.5,43.3,30.23,ENE,75,0.0,0.0,59,0.00,,,0.00,Wunderground v.1.15,2013-07-27 14:55:00,
2013-07-27 08:00:00,57.8,43.6,30.23,ENE,73,0.0,0.0,59,0.00,,,0.00,Wunderground v.1.15,2013-07-27 15:00:00,
2013-07-27 08:05:00,58.6,44.3,30.23,ENE,73,0.0,0.0,59,0.00,,,0.00,Wunderground v.1.15,2013-07-27 15:05:00,
2013-07-27 08:15:00,59.9,43.7,30.23,ENE,73,0.0,0.0,55,0.00,,,0.00,Wunderground v.1.15,2013-07-27 15:15:00,
2013-07-27 08:20:00,59.9,44.6,30.23,ENE,73,0.0,0.0,57,0.00,,,0.00,Wunderground v.1.15,2013-07-27 15:20:00,
2013-07-27 08:30:00,59.9,44.6,30.23,ENE,73,0.0,0.0,57,0.00,,,0.00,Wunderground v.1.15,2013-07-27 15:30:00,
2013-07-27 08:40:00,59.9,45.5,30.23,South,186,1.0,5.0,59,0.00,,,0.00,Wunderground v.1.15,2013-07-27 15:40:00,
2013-07-27 08:50:00,60.4,45.5,30.23,SSW,192,0.0,3.0,58,0.00,,,0.00,Wunderground v.1.15,2013-07-27 15:50:00,
2013-07-27 09:00:00,60.4,45.5,30.23,East,93,0.0,0.0,58,0.00,,,0.00,Wunderground v.1.15,2013-07-27 16:00:00,
2013-07-27 09:10:00,60.5,46.5,30.23,SW,220,1.0,1.0,60,0.00,,,0.00,Wunderground v.1.15,2013-07-27 16:10:00,
2013-07-27 09:20:00,60.9,46.0,30.23,SW,223,3.0,3.0,58,0.00,,,0.00,Wunderground v.1.15,2013-07-27 16:20:00,
2013-07-27 09:30:00,61.5,45.2,30.23,SSW,209,1.0,1.0,55,0.00,,,0.00,Wunderground v.1.15,2013-07-27 16:30:00,
2013-07-27 09:40:00,61.5,44.7,30.23,SW,229,2.0,3.0,54,0.00,,,0.00,Wunderground v.1.15,2013-07-27 16:40:00,
2013-07-27 09:50:00,62.1,44.8,30.23,SSW,209,2.0,2.0,53,0.00,,,0.00,Wunderground v.1.15,2013-07-27 16:50:00,
2013-07-27 10:00:00,62.3,44.9,30.22,WSW,240,3.0,6.0,53,0.00,,,0.00,Wunderground v.1.15,2013-07-27 17:00:00,
2013-07-27 10:05:00,62.3,45.4,30.22,WSW,247,4.0,6.0,54,0.00,,,0.00,Wunderground v.1.15,2013-07-27 17:05:00,
2013-07-27 10:15:00,62.9,45.5,30.22,SSW,203,2.0,6.0,53,0.00,,,0.00,Wunderground v.1.15,2013-07-27 17:15:00,
2013-07-27 10:25:00,63.1,45.7,30.22,WNW,291,2.0,3.0,53,0.00,,,0.00,Wunderground v.1.15,2013-07-27 17:25:00,
2013-07-27 10:35:00,63.7,45.7,30.21,SSW,212,3.0,7.0,52,0.00,,,0.00,Wunderground v.1.15,2013-07-27 17:35:00,
2013-07-27 10:45:00,64.3,46.8,30.21,SSW,208,3.0,6.0,53,0.00,,,0.00,Wunderground v.1.15,2013-07-27 17:45:00,
2013-07-27 10:55:00,65.6,45.4,30.21,WSW,253,4.0,6.0,48,0.00,,,0.00,Wunderground v.1.15,2013-07-27 17:55:00,
2013-07-27 11:00:00,65.8,45.0,30.20,West,272,4.0,4.0,47,0.00,,,0.00,Wunderground v.1.15,2013-07-27 18:00:00,
2013-07-27 11:05:00,66.1,45.3,30.20,WSW,247,3.0,5.0,47,0.00,,,0.00,Wunderground v.1.15,2013-07-27 18:05:00,
2013-07-27 11:15:00,66.0,44.6,30.21,WNW,287,3.0,3.0,46,0.00,,,0.00,Wunderground v.1.15,2013-07-27 18:15:00,
2013-07-27 11:25:00,66.3,44.9,30.21,West,267,2.0,6.0,46,0.00,,,0.00,Wunderground v.1.15,2013-07-27 18:25:00,
2013-07-27 11:35:00,66.3,43.7,30.20,WNW,299,3.0,5.0,44,0.00,,,0.00,Wunderground v.1.15,2013-07-27 18:35:00,
2013-07-27 11:45:00,67.3,43.4,30.20,WNW,288,2.0,3.0,42,0.00,,,0.00,Wunderground v.1.15,2013-07-27 18:45:00,
2013-07-27 11:55:00,67.4,44.1,30.20,NW,319,2.0,2.0,43,0.00,,,0.00,Wunderground v.1.15,2013-07-27 18:55:00,
2013-07-27 12:00:00,68.3,43.0,30.20,SW,219,1.0,2.0,40,0.00,,,0.00,Wunderground v.1.15,2013-07-27 19:00:00,
2013-07-27 12:05:00,67.9,43.3,30.20,West,267,2.0,3.0,41,0.00,,,0.00,Wunderground v.1.15,2013-07-27 19:05:00,
2013-07-27 12:15:00,68.3,43.7,30.19,WSW,247,2.0,5.0,41,0.00,,,0.00,Wunderground v.1.15,2013-07-27 19:15:00,
2013-07-27 12:25:00,67.4,44.1,30.19,West,261,4.0,4.0,43,0.00,,,0.00,Wunderground v.1.15,2013-07-27 19:25:00,
2013-07-27 12:35:00,68.8,43.5,30.18,WNW,291,3.0,3.0,40,0.00,,,0.00,Wunderground v.1.15,2013-07-27 19:35:00,
2013-07-27 12:45:00,68.4,43.8,30.18,West,271,5.0,11.0,41,0.00,,,0.00,Wunderground v.1.15,2013-07-27 19:45:00,
2013-07-27 12:55:00,69.6,43.5,30.18,West,281,3.0,5.0,39,0.00,,,0.00,Wunderground v.1.15,2013-07-27 19:55:00,
2013-07-27 13:00:00,69.1,43.1,30.18,WSW,244,3.0,3.0,39,0.00,,,0.00,Wunderground v.1.15,2013-07-27 20:00:00,
2013-07-27 13:10:00,69.1,43.8,30.18,WSW,244,3.0,10.0,40,0.00,,,0.00,Wunderground v.1.15,2013-07-27 20:10:00,
2013-07-27 13:15:00,69.6,43.5,30.17,SW,236,4.0,10.0,39,0.00,,,0.00,Wunderground v.1.15,2013-07-27 20:15:00,
2013-07-27 13:25:00,69.9,43.8,30.17,North,0,3.0,3.0,39,0.00,,,0.00,Wunderground v.1.15,2013-07-27 20:25:00,
2013-07-27 13:35:00,70.3,44.8,30.17,NW,308,4.0,8.0,40,0.00,,,0.00,Wunderground v.1.15,2013-07-27 20:35:00,
2013-07-27 13:45:00,69.9,43.8,30.17,WSW,256,3.0,6.0,39,0.00,,,0.00,Wunderground v.1.15,2013-07-27 20:45:00,
2013-07-27 13:50:00,69.9,43.8,30.17,West,263,4.0,4.0,39,0.00,,,0.00,Wunderground v.1.15,2013-07-27 20:50:00,
2013-07-27 13:55:00,70.3,44.2,30.17,NW,325,4.0,4.0,39,0.00,,,0.00,Wunderground v.1.15,2013-07-27 20:55:00,
2013-07-27 14:00:00,70.1,44.6,30.17,SW,227,4.0,11.0,40,0.00,,,0.00,Wunderground v.1.15,2013-07-27 21:00:00,
2013-07-27 14:05:00,69.8,44.4,30.17,WSW,241,5.0,11.0,40,0.00,,,0.00,Wunderground v.1.15,2013-07-27 21:05:00,
2013-07-27 14:15:00,70.4,44.3,30.16,West,267,4.0,8.0,39,0.00,,,0.00,Wunderground v.1.15,2013-07-27 21:15:00,
2013-07-27 14:25:00,70.8,44.6,30.16,WNW,288,4.0,6.0,39,0.00,,,0.00,Wunderground v.1.15,2013-07-27 21:25:00,
2013-07-27 14:35:00,71.6,42.5,30.16,WNW,291,3.0,3.0,35,0.00,,,0.00,Wunderground v.1.15,2013-07-27 21:35:00,
2013-07-27 14:45:00,72.1,43.7,30.15,West,263,2.0,3.0,36,0.00,,,0.00,Wunderground v.1.15,2013-07-27 21:45:00,
2013-07-27 14:55:00,71.8,42.7,30.15,WSW,256,4.0,5.0,35,0.00,,,0.00,Wunderground v.1.15,2013-07-27 21:55:00,
2013-07-27 15:00:00,72.3,42.3,30.15,WSW,244,4.0,8.0,34,0.00,,,0.00,Wunderground v.1.15,2013-07-27 22:00:00,
2013-07-27 15:05:00,72.0,42.8,30.15,SW,223,4.0,8.0,35,0.00,,,0.00,Wunderground v.1.15,2013-07-27 22:05:00,
2013-07-27 15:15:00,72.5,42.5,30.15,WSW,246,5.0,8.0,34,0.00,,,0.00,Wunderground v.1.15,2013-07-27 22:15:00,
2013-07-27 15:25:00,73.2,41.6,30.15,SSW,209,2.0,6.0,32,0.00,,,0.00,Wunderground v.1.15,2013-07-27 22:25:00,
2013-07-27 15:35:00,73.0,41.4,30.14,NW,304,4.0,7.0,32,0.00,,,0.00,Wunderground v.1.15,2013-07-27 22:35:00,
2013-07-27 15:45:00,73.0,41.4,30.14,WSW,253,2.0,6.0,32,0.00,,,0.00,Wunderground v.1.15,2013-07-27 22:45:00,
2013-07-27 15:55:00,73.3,40.8,30.14,SW,232,6.0,7.0,31,0.00,,,0.00,Wunderground v.1.15,2013-07-27 22:55:00,
2013-07-27 16:00:00,73.2,40.7,30.13,West,265,5.0,7.0,31,0.00,,,0.00,Wunderground v.1.15,2013-07-27 23:00:00,
2013-07-27 16:05:00,73.3,40.0,30.13,SW,224,5.0,7.0,30,0.00,,,0.00,Wunderground v.1.15,2013-07-27 23:05:00,
2013-07-27 16:15:00,74.0,38.8,30.12,WSW,247,2.0,5.0,28,0.00,,,0.00,Wunderground v.1.15,2013-07-27 23:15:00,
2013-07-27 16:25:00,74.2,39.0,30.12,WNW,292,3.0,3.0,28,0.00,,,0.00,Wunderground v.1.15,2013-07-27 23:25:00,
2013-07-27 16:35:00,74.4,39.2,30.12,NW,319,1.0,2.0,28,0.00,,,0.00,Wunderground v.1.15,2013-07-27 23:35:00,
2013-07-27 16:45:00,74.6,39.3,30.11,NW,325,1.0,1.0,28,0.00,,,0.00,Wunderground v.1.15,2013-07-27 23:45:00,
2013-07-27 16:55:00,74.7,38.5,30.11,NNW,330,2.0,3.0,27,0.00,,,0.00,Wunderground v.1.15,2013-07-27 23:55:00,
2013-07-27 17:00:00,75.1,37.9,30.11,WNW,289,2.0,3.0,26,0.00,,,0.00,Wunderground v.1.15,2013-07-28 00:00:00,
2013-07-27 17:05:00,74.7,37.5,30.11,West,274,1.0,3.0,26,0.00,,,0.00,Wunderground v.1.15,2013-07-28 00:05:00,
2013-07-27 17:15:00,74.9,39.6,30.10,NW,316,1.0,1.0,28,0.00,,,0.00,Wunderground v.1.15,2013-07-28 00:15:00,
2013-07-27 17:25:00,75.3,39.9,30.10,West,260,1.0,6.0,28,0.00,,,0.00,Wunderground v.1.15,2013-07-28 00:25:00,
2013-07-27 17:30:00,75.6,40.2,30.10,WNW,291,1.0,1.0,28,0.00,,,0.00,Wunderground v.1.15,2013-07-28 00:30:00,
2013-07-27 17:40:00,75.6,39.2,30.10,NW,315,1.0,1.0,27,0.00,,,0.00,Wunderground v.1.15,2013-07-28 00:40:00,
2013-07-27 17:50:00,75.4,38.1,30.10,WNW,302,1.0,1.0,26,0.00,,,0.00,Wunderground v.1.15,2013-07-28 00:50:00,
2013-07-27 18:00:00,76.0,36.6,30.09,WSW,253,1.0,2.0,24,0.00,,,0.00,Wunderground v.1.15,2013-07-28 01:00:00,
2013-07-27 18:05:00,76.0,37.6,30.09,West,263,1.0,2.0,25,0.00,,,0.00,Wunderground v.1.15,2013-07-28 01:05:00,
2013-07-27 18:15:00,75.8,38.5,30.09,NNW,342,1.0,4.0,26,0.00,,,0.00,Wunderground v.1.15,2013-07-28 01:15:00,
2013-07-27 18:25:00,76.3,38.9,30.09,West,270,0.0,1.0,26,0.00,,,0.00,Wunderground v.1.15,2013-07-28 01:25:00,
2013-07-27 18:35:00,76.1,36.7,30.08,West,274,1.0,1.0,24,0.00,,,0.00,Wunderground v.1.15,2013-07-28 01:35:00,
2013-07-27 18:45:00,76.0,35.5,30.08,North,352,0.0,1.0,23,0.00,,,0.00,Wunderground v.1.15,2013-07-28 01:45:00,
2013-07-27 18:55:00,76.1,34.5,30.08,WNW,291,0.0,0.0,22,0.00,,,0.00,Wunderground v.1.15,2013-07-28 01:55:00,
2013-07-27 19:00:00,75.8,35.3,30.07,NW,325,0.0,0.0,23,0.00,,,0.00,Wunderground v.1.15,2013-07-28 02:00:00,
2013-07-27 19:05:00,76.0,34.4,30.07,NW,318,0.0,0.0,22,0.00,,,0.00,Wunderground v.1.15,2013-07-28 02:05:00,
2013-07-27 19:15:00,76.3,35.8,30.07,WNW,295,0.0,2.0,23,0.00,,,0.00,Wunderground v.1.15,2013-07-28 02:15:00,
2013-07-27 19:25:00,76.1,33.3,30.07,NW,304,0.0,0.0,21,0.00,,,0.00,Wunderground v.1.15,2013-07-28 02:25:00,
2013-07-27 19:35:00,75.8,34.2,30.07,WNW,289,0.0,0.0,22,0.00,,,0.00,Wunderground v.1.15,2013-07-28 02:35:00,
2013-07-27 19:45:00,74.9,38.7,30.07,WNW,296,0.0,1.0,27,0.00,,,0.00,Wunderground v.1.15,2013-07-28 02:45:00,
2013-07-27 19:55:00,73.7,41.2,30.07,WSW,256,0.0,0.0,31,0.00,,,0.00,Wunderground v.1.15,2013-07-28 02:55:00,
2013-07-27 20:00:00,73.2,42.4,30.07,WSW,256,0.0,0.0,33,0.00,,,0.00,Wunderground v.1.15,2013-07-28 03:00:00,
2013-07-27 20:05:00,72.7,42.7,30.07,WSW,256,0.0,0.0,34,0.00,,,0.00,Wunderground v.1.15,2013-07-28 03:05:00,
2013-07-27 20:15:00,71.1,42.8,30.07,WNW,287,0.0,0.0,36,0.00,,,0.00,Wunderground v.1.15,2013-07-28 03:15:00,
2013-07-27 20:25:00,68.6,42.6,30.07,NW,316,0.0,0.0,39,0.00,,,0.00,Wunderground v.1.15,2013-07-28 03:25:00,
2013-07-27 20:35:00,67.3,43.4,30.07,NW,318,0.0,0.0,42,0.00,,,0.00,Wunderground v.1.15,2013-07-28 03:35:00,
2013-07-27 20:40:00,66.8,44.8,30.07,NW,318,0.0,0.0,45,0.00,,,0.00,Wunderground v.1.15,2013-07-28 03:40:00,
2013-07-27 20:50:00,66.1,44.7,30.07,NW,316,0.0,0.0,46,0.00,,,0.00,Wunderground v.1.15,2013-07-28 03:50:00,
2013-07-27 21:00:00,65.5,44.2,30.08,NW,316,0.0,0.0,46,0.00,,,0.00,Wunderground v.1.15,2013-07-28 04:00:00,
2013-07-27 21:05:00,64.7,44.0,30.08,NNW,346,0.0,0.0,47,0.00,,,0.00,Wunderground v.1.15,2013-07-28 04:05:00,
2013-07-27 21:10:00,63.5,44.0,30.08,WNW,288,1.0,5.0,49,0.00,,,0.00,Wunderground v.1.15,2013-07-28 04:10:00,
2013-07-27 21:15:00,62.6,43.7,30.08,NNW,335,1.0,5.0,50,0.00,,,0.00,Wunderground v.1.15,2013-07-28 04:15:00,
2013-07-27 21:25:00,61.8,43.5,30.08,NNW,329,1.0,5.0,51,0.00,,,0.00,Wunderground v.1.15,2013-07-28 04:25:00,
2013-07-27 21:30:00,61.5,43.7,30.08,NNW,344,2.0,2.0,52,0.00,,,0.00,Wunderground v.1.15,2013-07-28 04:30:00,
2013-07-27 21:40:00,61.0,44.2,30.08,NW,319,0.0,0.0,54,0.00,,,0.00,Wunderground v.1.15,2013-07-28 04:40:00,
2013-07-27 21:50:00,60.2,44.9,30.09,North,3,3.0,3.0,57,0.00,,,0.00,Wunderground v.1.15,2013-07-28 04:50:00,
2013-07-27 22:00:00,59.8,45.0,30.09,NNW,346,0.0,2.0,58,0.00,,,0.00,Wunderground v.1.15,2013-07-28 05:00:00,
2013-07-27 22:05:00,59.6,44.8,30.09,NNW,342,1.0,2.0,58,0.00,,,0.00,Wunderground v.1.15,2013-07-28 05:05:00,
2013-07-27 22:15:00,59.5,45.2,30.09,NNW,344,1.0,1.0,59,0.00,,,0.00,Wunderground v.1.15,2013-07-28 05:15:00,
2013-07-27 22:25:00,59.3,45.4,30.09,NNE,20,0.0,0.0,60,0.00,,,0.00,Wunderground v.1.15,2013-07-28 05:25:00,
2013-07-27 22:35:00,59.2,45.8,30.09,North,359,0.0,0.0,61,0.00,,,0.00,Wunderground v.1.15,2013-07-28 05:35:00,
2013-07-27 22:45:00,58.9,45.9,30.09,North,359,0.0,0.0,62,0.00,,,0.00,Wunderground v.1.15,2013-07-28 05:45:00,
2013-07-27 22:55:00,58.4,46.3,30.09,North,359,0.0,0.0,64,0.00,,,0.00,Wunderground v.1.15,2013-07-28 05:55:00,
2013-07-27 23:00:00,58.3,46.2,30.08,North,359,0.0,0.0,64,0.00,,,0.00,Wunderground v.1.15,2013-07-28 06:00:00,
2013-07-27 23:05:00,58.1,46.4,30.08,North,359,0.0,0.0,65,0.00,,,0.00,Wunderground v.1.15,2013-07-28 06:05:00,
2013-07-27 23:15:00,57.8,46.1,30.08,North,357,0.0,0.0,65,0.00,,,0.00,Wunderground v.1.15,2013-07-28 06:15:00,
2013-07-27 23:25:00,57.6,45.9,30.08,North,359,0.0,0.0,65,0.00,,,0.00,Wunderground v.1.15,2013-07-28 06:25:00,
2013-07-27 23:35:00,57.2,45.9,30.08,North,359,0.0,0.0,66,0.00,,,0.00,Wunderground v.1.15,2013-07-28 06:35:00,
2013-07-27 23:40:00,57.0,45.7,30.08,North,359,0.0,0.0,66,0.00,,,0.00,Wunderground v.1.15,2013-07-28 06:40:00,
2013-07-27 23:50:00,56.7,45.5,30.08,North,359,0.0,0.0,66,0.00,,,0.00,Wunderground v.1.15,2013-07-28 06:50:00,
2013-07-27 23:55:00,56.6,45.4,30.08,North,359,0.0,0.0,66,0.00,,,0.00,Wunderground v.1.15,2013-07-28 06:55:00,